When you browse on this site, cookies collect data to enhance your experience and personalize the content and advertising you see.
Visit our Privacy Policy to learn more. By continuing to use the site, you agree to this use of cookies and data.
  • In Österreich
  • Länderverzeichnis
  • Für 7 Tage
  • Wassertemperatur
  • Satellitenkarten
  • Wetterkarte
  • News
  • Widgets
  • user-avatar
    Anmelden

    Stündliche Wetter Ozerany

    Heute, 24 Mai, Freitag

    Zeit Temperatur Niederschläge Wind Luftdruck Luftfeuchtigkeit
    00:00 +18°C° 0 mm 1 m/S 743 mmHg 75%
    01:00 +16°C° 0 mm 1 m/S 743 mmHg 78%
    02:00 +15°C° 0 mm 0 m/S 743 mmHg 81%
    03:00 +16°C° 0 mm 1 m/S 743 mmHg 82%
    04:00 +16°C° 0 mm 1 m/S 744 mmHg 82%
    05:00 +16°C° 0 mm 1 m/S 744 mmHg 83%
    06:00 +19°C° 0 mm 1 m/S 744 mmHg 76%
    07:00 +21°C° 0 mm 1 m/S 744 mmHg 70%
    08:00 +23°C° 0 mm 1 m/S 744 mmHg 64%
    09:00 +24°C° 0.3 mm 1 m/S 744 mmHg 59%
    10:00 +26°C° 0.3 mm 1 m/S 744 mmHg 54%
    11:00 +27°C° 0.3 mm 1 m/S 744 mmHg 49%
    12:00 +27°C° 0 mm 1 m/S 744 mmHg 47%
    13:00 +27°C° 0 mm 1 m/S 744 mmHg 46%
    14:00 +27°C° 0 mm 1 m/S 744 mmHg 45%
    15:00 +26°C° 0 mm 1 m/S 743 mmHg 49%
    16:00 +26°C° 0 mm 1 m/S 743 mmHg 54%
    17:00 +25°C° 0 mm 1 m/S 743 mmHg 58%
    18:00 +23°C° 0.3 mm 1 m/S 743 mmHg 64%
    19:00 +22°C° 0.3 mm 1 m/S 743 mmHg 70%
    20:00 +20°C° 0.3 mm 1 m/S 743 mmHg 76%
    21:00 +20°C° 0.6 mm 1 m/S 743 mmHg 79%
    22:00 +19°C° 0.6 mm 1 m/S 743 mmHg 83%
    23:00 +18°C° 0.6 mm 1 m/S 743 mmHg 86%

    Morgen, 25 Mai, Samstag

    Zeit Temperatur Niederschläge Wind Luftdruck Luftfeuchtigkeit
    00:00 +18°C° 0.3 mm 1 m/S 743 mmHg 88%
    01:00 +16°C° 0.3 mm 1 m/S 742 mmHg 90%
    02:00 +16°C° 0.3 mm 1 m/S 742 mmHg 92%
    03:00 +16°C° 0 mm 1 m/S 742 mmHg 92%
    04:00 +16°C° 0 mm 1 m/S 742 mmHg 92%
    05:00 +16°C° 0 mm 1 m/S 742 mmHg 92%
    06:00 +18°C° 0 mm 1 m/S 742 mmHg 88%
    07:00 +20°C° 0 mm 1 m/S 742 mmHg 83%
    08:00 +20°C° 0 mm 2 m/S 742 mmHg 78%
    09:00 +21°C° 0.4 mm 3 m/S 742 mmHg 75%
    10:00 +22°C° 0.4 mm 3 m/S 742 mmHg 71%
    11:00 +23°C° 0.4 mm 4 m/S 742 mmHg 68%
    12:00 +23°C° 0.6 mm 4 m/S 742 mmHg 66%
    13:00 +23°C° 0.6 mm 4 m/S 742 mmHg 65%
    14:00 +23°C° 0.6 mm 4 m/S 742 mmHg 63%
    15:00 +23°C° 0.7 mm 4 m/S 741 mmHg 66%
    16:00 +22°C° 0.7 mm 4 m/S 741 mmHg 70%
    17:00 +21°C° 0.7 mm 4 m/S 741 mmHg 73%
    18:00 +20°C° 0 mm 3 m/S 741 mmHg 78%
    19:00 +18°C° 0 mm 3 m/S 741 mmHg 83%
    20:00 +17°C° 0 mm 2 m/S 742 mmHg 87%
    21:00 +16°C° 0 mm 2 m/S 742 mmHg 88%
    22:00 +15°C° 0 mm 2 m/S 742 mmHg 88%
    23:00 +13°C° 0 mm 3 m/S 742 mmHg 89%

    übermorgen, 26 Mai, Sonntag

    Zeit Temperatur Niederschläge Wind Luftdruck Luftfeuchtigkeit
    00:00 +13°C° 0 mm 2 m/S 742 mmHg 91%
    01:00 +13°C° 0 mm 2 m/S 743 mmHg 92%
    02:00 +13°C° 0 mm 2 m/S 743 mmHg 94%
    03:00 +12°C° 0 mm 2 m/S 743 mmHg 93%
    04:00 +12°C° 0 mm 2 m/S 743 mmHg 92%
    05:00 +12°C° 0 mm 2 m/S 743 mmHg 91%
    06:00 +13°C° 0 mm 2 m/S 744 mmHg 82%
    07:00 +13°C° 0 mm 3 m/S 744 mmHg 74%
    08:00 +16°C° 0 mm 3 m/S 744 mmHg 66%
    09:00 +17°C° 0 mm 4 m/S 744 mmHg 60%
    10:00 +18°C° 0 mm 4 m/S 744 mmHg 55%
    11:00 +19°C° 0 mm 5 m/S 744 mmHg 50%
    12:00 +20°C° 0 mm 5 m/S 744 mmHg 48%
    13:00 +20°C° 0 mm 5 m/S 744 mmHg 46%
    14:00 +21°C° 0 mm 5 m/S 744 mmHg 45%
    15:00 +21°C° 0 mm 5 m/S 743 mmHg 47%
    16:00 +21°C° 0 mm 4 m/S 743 mmHg 48%
    17:00 +21°C° 0 mm 4 m/S 743 mmHg 50%
    18:00 +19°C° 0 mm 4 m/S 743 mmHg 58%
    19:00 +18°C° 0 mm 3 m/S 743 mmHg 67%
    20:00 +16°C° 0 mm 3 m/S 743 mmHg 75%
    21:00 +14°C° 0 mm 3 m/S 743 mmHg 78%
    22:00 +14°C° 0 mm 3 m/S 743 mmHg 80%
    23:00 +13°C° 0 mm 3 m/S 744 mmHg 83%

    27 Mai, Montag

    Zeit Temperatur Niederschläge Wind Luftdruck Luftfeuchtigkeit
    00:00 +13°C° 0 mm 3 m/S 744 mmHg 85%
    01:00 +12°C° 0 mm 3 m/S 744 mmHg 87%
    02:00 +12°C° 0 mm 3 m/S 744 mmHg 89%
    03:00 +11°C° 0 mm 3 m/S 745 mmHg 90%
    04:00 +12°C° 0 mm 2 m/S 745 mmHg 91%
    05:00 +10°C° 0 mm 2 m/S 746 mmHg 92%
    06:00 +13°C° 0 mm 2 m/S 746 mmHg 82%
    07:00 +13°C° 0 mm 3 m/S 746 mmHg 72%
    08:00 +16°C° 0 mm 3 m/S 747 mmHg 62%
    09:00 +18°C° 0 mm 4 m/S 747 mmHg 59%
    10:00 +19°C° 0 mm 4 m/S 747 mmHg 56%
    11:00 +20°C° 0 mm 5 m/S 747 mmHg 53%
    12:00 +21°C° 0 mm 5 m/S 747 mmHg 52%
    13:00 +22°C° 0 mm 4 m/S 747 mmHg 50%
    14:00 +22°C° 0 mm 4 m/S 746 mmHg 49%
    15:00 +23°C° 0 mm 4 m/S 746 mmHg 49%
    16:00 +23°C° 0 mm 4 m/S 746 mmHg 49%
    17:00 +24°C° 0 mm 3 m/S 746 mmHg 50%
    18:00 +22°C° 0 mm 3 m/S 746 mmHg 57%
    19:00 +20°C° 0 mm 3 m/S 746 mmHg 64%
    20:00 +18°C° 0 mm 2 m/S 746 mmHg 72%
    21:00 +18°C° 0 mm 2 m/S 746 mmHg 77%
    22:00 +17°C° 0 mm 3 m/S 746 mmHg 82%
    23:00 +17°C° 0 mm 3 m/S 746 mmHg 87%

    28 Mai, Dienstag

    Zeit Temperatur Niederschläge Wind Luftdruck Luftfeuchtigkeit
    00:00 +17°C° 0.2 mm 3 m/S 746 mmHg 90%
    01:00 +17°C° 0.2 mm 3 m/S 746 mmHg 93%
    02:00 +17°C° 0.2 mm 2 m/S 746 mmHg 96%
    03:00 +17°C° 0 mm 2 m/S 746 mmHg 95%
    04:00 +17°C° 0 mm 2 m/S 746 mmHg 95%
    05:00 +17°C° 0 mm 2 m/S 746 mmHg 95%
    06:00 +18°C° 0 mm 2 m/S 746 mmHg 91%
    07:00 +19°C° 0 mm 2 m/S 746 mmHg 88%
    08:00 +20°C° 0 mm 3 m/S 746 mmHg 84%
    09:00 +21°C° 0.4 mm 3 m/S 746 mmHg 84%
    10:00 +21°C° 0.4 mm 3 m/S 746 mmHg 84%
    11:00 +22°C° 0.4 mm 4 m/S 746 mmHg 84%
    12:00 +23°C° 0.8 mm 4 m/S 745 mmHg 80%
    13:00 +23°C° 0.8 mm 5 m/S 745 mmHg 76%
    14:00 +25°C° 0.8 mm 5 m/S 745 mmHg 73%
    15:00 +26°C° 0.1 mm 5 m/S 745 mmHg 69%
    16:00 +26°C° 0.1 mm 4 m/S 745 mmHg 65%
    17:00 +27°C° 0.1 mm 4 m/S 744 mmHg 61%
    18:00 +26°C° 0 mm 4 m/S 745 mmHg 65%
    19:00 +23°C° 0 mm 4 m/S 745 mmHg 68%
    20:00 +21°C° 0 mm 4 m/S 745 mmHg 72%
    21:00 +21°C° 0 mm 4 m/S 745 mmHg 74%
    22:00 +20°C° 0 mm 4 m/S 745 mmHg 77%
    23:00 +19°C° 0 mm 4 m/S 745 mmHg 79%

    29 Mai, Mittwoch

    Zeit Temperatur Niederschläge Wind Luftdruck Luftfeuchtigkeit
    00:00 +19°C° 0 mm 4 m/S 745 mmHg 83%
    01:00 +18°C° 0 mm 4 m/S 745 mmHg 87%
    02:00 +18°C° 0 mm 4 m/S 745 mmHg 90%
    03:00 +18°C° 0 mm 4 m/S 744 mmHg 87%
    04:00 +18°C° 0 mm 4 m/S 744 mmHg 85%
    05:00 +17°C° 0 mm 5 m/S 744 mmHg 82%
    06:00 +19°C° 0 mm 5 m/S 744 mmHg 76%
    07:00 +20°C° 0 mm 5 m/S 744 mmHg 69%
    08:00 +21°C° 0 mm 6 m/S 744 mmHg 63%
    09:00 +23°C° 0 mm 6 m/S 744 mmHg 62%
    10:00 +24°C° 0 mm 6 m/S 744 mmHg 60%
    11:00 +26°C° 0 mm 6 m/S 744 mmHg 58%
    12:00 +27°C° 0 mm 6 m/S 744 mmHg 57%
    13:00 +28°C° 0 mm 6 m/S 744 mmHg 55%
    14:00 +29°C° 0 mm 6 m/S 744 mmHg 53%
    15:00 +28°C° 1.6 mm 5 m/S 744 mmHg 61%
    16:00 +27°C° 1.6 mm 4 m/S 744 mmHg 69%
    17:00 +26°C° 1.6 mm 3 m/S 744 mmHg 77%
    18:00 +24°C° 0.2 mm 3 m/S 744 mmHg 80%
    19:00 +22°C° 0.2 mm 3 m/S 744 mmHg 83%
    20:00 +21°C° 0.2 mm 3 m/S 744 mmHg 86%
    21:00 +20°C° 0 mm 3 m/S 745 mmHg 88%
    22:00 +19°C° 0 mm 2 m/S 745 mmHg 89%
    23:00 +19°C° 0 mm 2 m/S 745 mmHg 90%
    Mehr zeigen